Regional Weather Roundup
Issued by NWS Charleston, SC

Current Version | Previous Version | Graphics & Text | Print | Product List | Glossary On
Versions: 1 2 3 4 5 6 7 8 9 10 11 12 13 14 15 16 17 18 19 20 21 22 23 24 25 26 27 28 29 30 31 32 33 34 35 36 37 38 39 40 41 42 43 44 45 46 47 48 49 50
000 ASUS42 KCHS 011127 RWRCHS REGIONAL WEATHER ROUNDUP NATIONAL WEATHER SERVICE CHARLESTON SC 700 AM EDT WED JUL 01 2015 NOTE: "FAIR" INDICATES FEW OR NO CLOUDS BELOW 12,000 FEET WITH NO SIGNIFICANT WEATHER AND/OR OBSTRUCTIONS TO VISIBILITY. NOT ALL STATIONS ARE QUALITY CONTROLLED BY THE NATIONAL WEATHER SERVICE. USE DATA WITH CAUTION...ESPECIALLY DEWPOINT OBSERVATIONS. SCZ027-030-031-034>040-042>050-011200- ...SOUTHEAST SOUTH CAROLINA... CITY SKY/WX TMP DP RH WIND PRES REMARKS N CHARLESTON PTCLDY 71 69 93 SW7 30.01R WATERFRONT PAR N/A 73 71 93 SW6 29.98S MOUNT PLEASANT LGT RAIN 73 70 88 SW6 30.01R JOHNS ISLAND FAIR 73 70 88 SW5 30.02R PINOPOLIS NOT AVBL MONCKS CORNER FAIR 72 68 88 SW6 30.00R SUMMERVILLE FAIR 70 70 100 CALM 30.01S BEAUFORT MCAS PTCLDY 72 69 90 SW12 30.03R BEAUFORT ARPT FAIR 73 70 88 SW9 30.03R HILTON HEAD IS CLEAR 73 70 88 SW12 30.04R WALTERBORO SUNNY 68 68 100 SW6 30.01S ALLENDALE FAIR 70 70 100 CALM 30.01R ...SOUTHERN MIDLANDS AND PEE DEE... CITY SKY/WX TMP DP RH WIND PRES REMARKS GEORGETOWN NOT AVBL KINGSTREE NOT AVBL ORANGEBURG PTCLDY 69 67 93 SW5 29.99S FOG BARNWELL FAIR 70 70 100 W5 30.01R AIKEN NOT AVBL MANNING CLOUDY 70 70 100 SW5 29.99S COLUMBIA MOCLDY 71 67 87 S5 29.97R SUMTER PTCLDY 70 68 94 SW7 29.96R FLORENCE CLOUDY 72 70 93 SW6 29.96F MYRTLE BEACH CLEAR 72 66 83 W7 30.00R N MYRTLE BEACH CLEAR 73 69 87 SW5 29.98R $$ GAZ063-065-086>088-099>101-113>116-118-119-134>141-150-011200- ...SOUTHEAST GEORGIA... CITY SKY/WX TMP DP RH WIND PRES REMARKS SAVANNAH ARPT PTCLDY 72 67 84 W9 30.05R HUNTER AAF CLEAR 71 70 95 SW7 30.03R FORT STEWART PTCLDY 72 67 85 W6 30.04R STATESBORO CLEAR 70 70 100 W5 30.04S SYLVANIA SUNNY 72 71 98 W5 30.05R CLAXTON FAIR 68 68 100 CALM 30.05S FOG ...CSRA...CENTRAL AND FAR SOUTHEAST GEORGIA... CITY SKY/WX TMP DP RH WIND PRES REMARKS THOMSON CLEAR 71 70 96 SW3 30.06S AUGUSTA-BUSH CLEAR 70 67 90 W9 29.99R AUGUSTA-DANIEL CLEAR 71 66 84 W7 30.01R SWAINSBORO FAIR N/A N/A N/A W3 30.05S VIDALIA RAIN 70 68 94 SW6 30.06S EASTMAN FAIR 70 70 100 CALM 30.09S HAZLEHURST FAIR 71 71 98 CALM 30.06S ALMA PTCLDY 69 67 93 SW5 30.08R WAYCROSS PTCLDY 72 70 94 SW7 30.09S JESUP FAIR 72 70 94 SW5 30.08R BAXLEY MOCLDY 72 68 88 CALM 30.07S BRUNSWICK PTCLDY 72 68 88 SW7 30.10R SAINT SIMONS PTCLDY 71 67 87 SW9 30.08R $$ SCZ027-028-034-036>038-045-046-048>050-GAZ119-141-011200- ...LAKE AND SUPPLEMENTAL COASTAL OBSERVATIONS... STATION/POSITION TIME TEMP WIND PRES WAVE SWELL AIR SEA DIR/SP/G HT/PER HT/PER/DIR (UTC) (F) (DEG/KT/KT) (MB) (FT/S) (FT/S/D) UPR LAKE MARION NOT AVBL WINYAH BAY 1000 73 230/ 7 1014.0 LAKE MURRAY 1000 74 260/ 11/ 14 1013.9S ACE BASIN NERRS NOT AVBL FORT PULASKI 1100 74 84 240/ 7/ 10 1017.9R SAPELO ISLAND 1100 72 240/ 10 1018.0S $$ ANZ835-935-AMZ111-154-330-350-352-354-370-450-454-472-011200- ...C-MAN AND BUOY OBSERVATIONS... STATION/POSITION TIME TEMP WIND PRES WAVE SWELL AIR SEA DIR/SP/G HT/PER HT/PER/DIR (UTC) (F) (DEG/KT/KT) (MB) (FT/S) (FT/S/D) BUOY 41004 1050 80 82 240/ 16/ 19 1015.5R 4/ 6 2/ 8 BUOY 41008 1050 76 79 240/ 14/ 16 1018.0R 3/ 4 2/120/ 8 FOLLY BEACH CMAN 1100 74 240/ 7/ 10 1016.4R CAPERS NEARSHORE 1008 78 260/ 14/ 19 1015.7S FRIPP NEARSHORE 1000 77 260/ 16/ 17 1016.2R STATION/POSITION TIME TEMP WIND PRES WAVE SWELL AIR SEA DIR/SP/G HT/PER HT/PER/DIR (UTC) (F) (DEG/KT/KT) (MB) (FT/S) (FT/S/D) 5E ST. MARYS GA 1021 78 N/A 2/ 8 FRYING PAN BUOY 1050 80 80 230/ 17/ 21 1015.4R 5/ 5 2/110/ 9 BUOY 41025 1050 77 82 290/ 16/ 21 1014.1R 6/ 6 2/150/ 8 CAPE LOOKOUT NC 1100 79 260/ 15/ 17 1014.3R BUOY 41002 1050 81 80 240/ 17/ 21 1018.0R 6/ 8 2/130/14 BUOY 41010 1020 82 84 240/ 16/ 17 1019.8R ST AUGUSTINE FL 1100 74 73 250/ 5/ 6 1020.7R $$

USA.gov is the U.S. government's official web portal to all federal, state and local government web resources and services.